GAOFEN-1 02

Last updated on Sat Dec 13 2025 00:02:31 GMT+0000 (Coordinated Universal Time)

1 43259U 18031A 25346.31816626 .00001685 00000+0 24991-3 0 9996 2 43259 98.0803 44.1073 0001731 219.1812 140.9272 14.76413889415127
UTC large
Height (km)
Speed (km/s)
/
Latitude / Longitude
Inclination (degrees)
Orbital Period (minutes)
Azimuth
Elevation
Range (km)
Doppler Factor

Next 0 passes for location: London (51.5072 / 0.1276)

Sorry there are no passes over London.